Wind_Speed
6 5 1 7 3 6 7 11 6 6 9 13 8 14 10 9 8 9 9 8 6 5 4 5 5 5 5 5 4 3 3 3 4 4 5 6 6 6 7 7 8 9 10
6 4 2 1 2 10 9 10 9 3 8 7 6 9 11 4 7 9 11 13 11 7 4 3 3 3 3 3 2 1 2 2 3 4 5 5 6 7 7 7 8 9 9
8 6 6 1 4 8 6 6 6 9 9 4 5 12 9 9 8 5 7 8 9 9 8 5 3 1 2 1 0 1 2 2 3 4 5 6 7 7 8 8 9 9 9
9 5 4 3 10 9 9 10 11 8 3 5 10 9 11 6 8 4 5 6 7 9 6 10 5 4 4 3 3 3 3 4 4 5 6 6 7 7 7 8 8 8 8
4 8 7 7 7 4 6 7 8 10 6 6 14 13 5 5 9 5 3 3 4 3 7 9 7 7 8 6 6 5 5 5 5 6 5 6 6 6 6 7 7 7 7
3 2 7 6 8 9 11 5 7 3 7 5 9 9 7 6 5 3 4 7 7 5 6 9 3 6 9 9 8 7 6 5 5 5 5 5 5 5 5 5 5 5 6
6 1 5 8 11 5 6 6 4 6 7 7 9 7 2 4 6 2 2 5 6 3 3 6 6 4 5 9 11 10 7 5 5 5 5 4 3 3 4 3 3 3 3
7 3 7 4 5 7 9 9 9 7 5 5 1 3 4 2 7 5 3 1 2 2 3 1 8 4 3 8 9 9 8 7 6 5 4 3 3 3 2 2 2 2 2
5 6 5 4 10 7 5 9 11 3 7 3 1 5 4 3 4 1 4 5 3 4 4 7 2 8 2 5 7 7 10 8 7 5 4 3 3 2 2 2 2 3 3
8 6 7 6 8 5 7 10 8 5 9 5 2 1 0 2 2 4 3 5 3 4 2 4 6 9 10 1 6 11 8 9 7 6 4 3 3 3 4 5 5 5 5
12 11 7 6 8 6 5 9 7 11 8 5 5 3 3 1 0 1 4 5 5 1 5 3 2 7 10 10 6 9 9 8 7 6 6 6 6 6 7 8 9 9 9
12 14 12 8 7 10 9 10 10 14 11 7 10 5 5 4 2 6 3 4 4 2 2 3 5 3 7 10 9 7 11 10 8 8 8 8 9 10 11 12 12 13 13
13 15 15 11 9 10 8 9 9 13 15 12 9 8 2 2 6 4 3 5 2 1 3 2 6 7 6 9 11 13 15 14 13 12 12 12 13 14 15 15 16 16 17
20 16 15 11 11 10 9 8 8 10 9 15 15 12 8 4 1 3 4 7 4 6 8 3 4 7 8 8 9 14 16 17 16 16 17 19 20 21 21 22 22 22 21
15 17 17 13 13 13 9 10 7 7 11 9 8 10 13 10 6 6 6 6 8 12 7 2 2 6 8 10 11 13 18 24 25 25 24 24 24 25 26 27 28 28 28
19 14 18 18 15 16 15 14 10 10 14 9 10 9 7 11 5 8 10 8 8 9 12 7 7 9 11 11 16 23 23 22 25 24 22 21 23 26 27 27 28 30 31
23 27 16 17 17 17 20 19 17 15 15 12 14 10 14 12 15 11 10 8 9 11 14 14 12 15 16 19 24 23 22 23 23 23 21 21 18 23 22 22 24 25 26
31 28 27 20 20 21 20 21 19 23 15 19 14 20 15 15 13 16 16 15 11 12 15 20 21 21 16 17 21 22 21 23 23 21 21 24 26 30 28 28 26 25 25
35 34 31 29 29 24 22 21 20 19 21 19 16 15 18 19 18 17 14 15 16 13 16 18 20 18 20 18 20 21 24 26 22 23 27 28 30 32 26 29 30 29 28
39 38 35 32 29 26 23 24 24 22 20 25 23 22 22 21 20 20 19 20 21 20 21 22 23 19 19 19 19 16 16 20 28 21 24 31 27 28 28 29 30 28 29
43 40 37 34 32 29 27 27 27 26 24 23 23 24 24 24 24 23 22 20 17 17 19 20 22 20 20 22 24 27 30 27 33 38 27 22 24 30 25 26 22 24 27
44 43 40 37 35 33 30 25 25 26 27 27 24 25 26 24 23 22 23 25 24 24 25 26 29 31 31 32 32 34 34 33 35 26 22 31 26 26 22 18 18 23 25
43 44 42 39 38 37 33 27 27 28 27 28 28 26 25 24 23 23 21 20 20 21 25 27 31 31 30 27 30 30 27 27 30 32 30 30 28 30 21 20 22 28 22
45 44 43 41 40 39 36 32 30 30 31 30 29 27 27 25 23 23 21 22 23 23 22 23 25 28 30 32 26 27 27 31 33 30 26 31 29 22 22 27 21 18 20
46 45 43 43 43 41 39 35 33 34 34 34 32 33 32 28 28 25 28 30 30 31 30 32 34 33 30 28 28 28 30 31 31 30 24 25 29 29 30 22 10 15 27
47 45 44 44 44 42 40 38 35 34 38 37 35 35 33 34 33 33 34 34 35 34 33 32 31 29 26 24 25 23 23 24 26 29 23 28 25 20 29 18 22 26 25
Wind_Direction
147 125 12 152 92 84 93 89 87 45 110 88 114 95 95 85 55 52 63 74 71 78 106 113 110 115 114 110 103 100 80 59 43 27 21 26 29 28 24 21 15 9 5
150 136 149 201 31 104 126 128 95 122 125 102 108 123 113 92 57 65 63 63 64 57 57 72 104 119 125 124 124 95 29 3 11 16 9 8 11 14 13 4 356 358 355
153 164 156 158 137 110 100 138 111 116 142 120 96 98 112 109 87 70 55 50 53 60 51 38 23 65 99 106 62 39 352 355 345 353 352 349 345 346 348 350 352 353 356
182 161 112 141 110 107 136 119 120 110 98 126 122 123 110 88 111 92 34 43 22 31 36 37 14 3 357 336 324 314 320 324 324 326 328 324 325 331 335 342 351 350 356
109 175 158 174 135 160 119 138 71 127 146 119 133 114 132 113 105 83 111 46 27 358 12 9 36 34 26 10 352 332 323 315 316 320 325 326 329 329 334 343 347 351 358
179 110 148 161 130 91 153 138 164 172 109 85 179 124 122 102 99 349 134 171 23 32 19 3 3 17 15 7 354 339 327 318 312 314 318 321 325 327 338 343 350 0 12
200 193 110 141 140 166 113 136 116 131 118 112 88 126 194 148 131 229 58 164 51 100 23 327 360 23 348 5 16 6 7 351 333 323 320 320 324 333 339 343 3 18 22
207 157 147 172 152 157 161 180 157 160 132 168 279 259 184 214 227 133 145 143 155 59 197 111 320 309 3 336 348 0 15 15 7 360 347 339 339 337 344 353 356 0 358
181 186 195 181 160 156 143 179 170 117 144 155 308 78 102 10 342 268 79 201 284 144 242 322 277 345 171 258 338 358 3 10 10 13 12 4 358 335 324 306 294 303 318
200 212 202 205 162 180 180 153 166 172 148 169 203 73 134 89 118 71 145 211 132 185 216 261 274 326 342 43 297 340 359 2 1 355 353 343 323 302 295 290 290 292 295
195 209 233 199 180 163 183 168 192 180 179 169 158 183 169 128 125 202 222 196 90 143 304 46 175 296 312 340 288 301 335 338 335 332 324 316 306 296 288 287 285 286 288
210 204 228 229 182 178 206 205 202 182 179 176 181 195 199 219 253 294 329 145 139 117 275 305 280 250 280 297 303 293 327 331 330 326 318 311 306 299 292 289 287 286 287
215 201 225 226 202 191 208 203 187 186 195 196 191 169 203 302 326 358 338 25 109 201 317 276 275 291 285 276 308 301 309 314 313 312 311 309 305 302 299 296 293 289 287
220 228 221 230 229 199 214 214 217 200 209 209 204 193 194 194 296 290 294 333 294 308 234 176 239 282 305 301 294 288 303 314 310 307 306 305 303 299 297 296 295 293 292
222 231 221 229 246 223 215 230 215 207 213 222 223 214 205 185 196 257 261 274 291 309 341 318 74 260 288 296 298 298 300 311 312 307 301 298 299 301 302 300 296 292 290
212 219 230 239 242 214 223 227 219 239 225 218 218 241 251 202 203 245 237 243 264 279 294 287 300 320 312 294 281 292 304 309 316 312 304 308 310 308 305 304 302 298 294
209 221 210 223 242 228 219 225 218 221 238 242 220 219 248 252 217 204 250 260 254 255 270 284 278 265 264 280 290 305 317 324 331 341 333 315 322 320 312 316 314 311 311
208 216 223 223 228 234 227 227 228 212 235 238 243 220 219 249 242 222 218 224 234 250 257 269 282 289 298 313 316 308 314 323 323 325 328 323 326 323 307 312 324 326 316
220 217 224 226 233 236 229 228 234 226 215 239 243 241 240 240 242 249 243 246 251 262 276 282 297 299 299 310 313 311 311 317 321 324 327 324 322 320 322 321 318 317 314
223 226 227 235 237 237 234 225 232 238 235 225 235 242 245 251 253 254 255 252 254 256 258 265 277 297 306 318 308 312 307 303 308 308 294 301 301 301 314 310 311 316 315
228 230 232 232 238 238 237 234 229 232 241 242 234 241 247 249 252 255 259 263 268 275 277 283 285 287 283 286 291 296 297 296 295 301 312 305 303 310 306 311 320 317 314
226 230 233 232 233 238 238 234 238 232 234 243 246 239 240 247 258 261 256 259 255 253 260 265 269 276 284 292 297 300 301 305 313 324 305 309 317 322 323 325 320 310 306
226 229 233 234 235 237 238 231 235 240 240 240 245 250 251 251 253 259 264 268 270 268 267 273 276 284 293 299 305 309 308 309 309 312 316 314 322 322 330 323 315 317 325
228 229 231 233 236 239 241 237 233 238 242 245 246 250 254 255 242 247 262 269 272 276 279 284 285 293 298 304 303 305 307 303 303 310 320 311 327 327 315 316 335 345 327
227 231 232 234 237 240 242 243 237 236 240 245 248 247 246 253 262 255 249 251 256 262 271 279 284 291 297 298 300 297 291 294 300 306 321 312 323 320 321 338 340 302 324
228 232 233 236 240 242 244 246 243 239 242 246 251 255 256 256 257 260 265 270 274 278 283 285 283 282 283 284 286 284 290 293 299 305 308 310 318 321 321 319 310 334 332
Height
1591 1594 1593 1595 1595 1592 1595 1596 1597 1597 1599 1600 1602 1603 1604 1605 1604 1605 1605 1605 1605 1605 1606 1606 1606 1606 1607 1608 1608 1607 1607 1607 1607 1607 1606 1606 1606 1605 1604 1603 1602 1601 1599
1592 1594 1595 1594 1595 1596 1597 1598 1600 1601 1601 1603 1604 1604 1606 1607 1607 1607 1606 1606 1606 1606 1606 1607 1607 1607 1608 1608 1608 1608 1608 1607 1608 1608 1607 1606 1605 1605 1604 1603 1602 1601 1599
1592 1593 1595 1596 1596 1597 1599 1600 1602 1603 1604 1604 1604 1607 1608 1608 1608 1608 1608 1608 1608 1608 1607 1607 1608 1608 1608 1609 1608 1609 1608 1608 1607 1607 1607 1607 1606 1605 1604 1603 1602 1601 1599
1591 1594 1596 1596 1598 1600 1601 1601 1602 1604 1604 1605 1606 1608 1608 1609 1609 1608 1608 1609 1608 1609 1609 1608 1608 1609 1609 1609 1609 1609 1609 1608 1607 1607 1608 1607 1606 1605 1603 1602 1602 1600 1599
1594 1592 1595 1597 1599 1599 1600 1601 1603 1605 1606 1607 1607 1607 1609 1609 1608 1610 1610 1609 1609 1609 1609 1609 1610 1610 1610 1610 1609 1608 1608 1608 1608 1607 1607 1606 1605 1604 1602 1602 1601 1600 1599
1592 1596 1596 1597 1599 1600 1601 1603 1603 1605 1607 1607 1607 1609 1610 1611 1609 1610 1610 1610 1610 1610 1610 1611 1611 1611 1610 1610 1609 1608 1608 1607 1607 1606 1606 1605 1604 1603 1602 1601 1600 1599 1599
1594 1593 1595 1597 1598 1599 1601 1602 1604 1606 1607 1608 1609 1610 1610 1610 1610 1611 1610 1611 1611 1610 1610 1611 1611 1611 1611 1610 1609 1608 1608 1606 1606 1606 1605 1604 1603 1602 1601 1600 1600 1599 1598
1594 1594 1595 1597 1598 1599 1601 1603 1604 1605 1607 1608 1609 1609 1609 1611 1611 1612 1613 1614 1613 1613 1612 1612 1610 1610 1611 1609 1610 1609 1608 1607 1606 1605 1604 1604 1603 1602 1601 1600 1599 1598 1597
1593 1594 1595 1596 1597 1598 1600 1602 1604 1605 1606 1608 1609 1610 1610 1610 1611 1612 1612 1612 1612 1613 1613 1612 1611 1611 1611 1609 1610 1610 1608 1607 1606 1605 1604 1603 1602 1602 1601 1600 1599 1598 1597
1592 1593 1594 1595 1597 1598 1600 1602 1604 1604 1606 1608 1609 1610 1611 1611 1611 1612 1612 1612 1612 1613 1613 1612 1611 1611 1610 1611 1609 1609 1609 1608 1607 1606 1605 1603 1602 1601 1600 1599 1598 1597 1596
1591 1593 1593 1595 1597 1598 1600 1602 1603 1605 1605 1608 1609 1610 1610 1611 1611 1611 1611 1612 1612 1612 1613 1613 1613 1612 1611 1612 1610 1610 1610 1609 1608 1606 1604 1603 1601 1600 1599 1598 1597 1596 1595
1589 1592 1593 1594 1596 1597 1599 1600 1602 1603 1604 1606 1607 1609 1610 1610 1611 1612 1611 1611 1611 1612 1613 1612 1613 1613 1612 1611 1611 1609 1609 1608 1607 1605 1603 1601 1600 1598 1597 1596 1595 1594 1593
1586 1588 1590 1593 1595 1597 1597 1599 1601 1602 1604 1605 1606 1608 1609 1611 1611 1611 1611 1612 1612 1612 1613 1612 1612 1612 1611 1611 1610 1609 1608 1607 1606 1604 1602 1600 1598 1596 1595 1593 1592 1591 1591
1585 1585 1588 1590 1593 1595 1597 1598 1600 1601 1602 1604 1605 1607 1608 1610 1611 1611 1612 1612 1611 1611 1611 1612 1612 1611 1611 1610 1609 1608 1606 1605 1604 1602 1600 1598 1596 1594 1593 1591 1589 1588 1588
1583 1584 1586 1588 1590 1593 1596 1597 1599 1600 1601 1602 1603 1605 1607 1608 1609 1611 1612 1613 1612 1610 1611 1612 1611 1611 1611 1609 1607 1606 1605 1602 1601 1599 1597 1595 1593 1591 1588 1586 1585 1584 1583
1580 1582 1583 1585 1587 1590 1593 1595 1597 1598 1599 1601 1602 1603 1605 1607 1608 1610 1611 1612 1612 1611 1610 1610 1611 1611 1609 1608 1606 1605 1604 1602 1598 1595 1592 1590 1589 1586 1583 1582 1580 1578 1576
1575 1579 1581 1582 1584 1587 1590 1592 1594 1597 1598 1599 1601 1602 1603 1605 1605 1606 1609 1609 1610 1610 1610 1608 1608 1607 1606 1605 1603 1602 1599 1597 1594 1591 1587 1586 1584 1581 1578 1578 1575 1572 1571
1570 1573 1576 1579 1581 1583 1586 1588 1590 1593 1594 1596 1598 1599 1600 1601 1602 1604 1604 1605 1606 1608 1607 1605 1605 1604 1603 1602 1599 1597 1595 1593 1591 1589 1586 1583 1580 1577 1573 1572 1569 1567 1565
1563 1568 1571 1574 1576 1579 1581 1584 1586 1589 1591 1593 1594 1595 1597 1598 1598 1599 1601 1602 1603 1604 1603 1602 1600 1600 1599 1598 1596 1593 1591 1589 1587 1585 1581 1579 1577 1574 1571 1568 1565 1563 1561
1556 1561 1565 1568 1571 1574 1577 1579 1582 1584 1587 1589 1591 1592 1593 1594 1595 1596 1597 1598 1599 1599 1599 1599 1598 1596 1595 1594 1594 1591 1589 1588 1586 1584 1581 1579 1575 1571 1568 1565 1562 1559 1556
1549 1554 1558 1562 1565 1568 1571 1574 1577 1579 1581 1583 1586 1588 1589 1590 1591 1592 1593 1594 1595 1595 1594 1594 1594 1593 1592 1590 1589 1588 1585 1582 1579 1577 1572 1570 1569 1566 1562 1559 1557 1554 1551
1542 1547 1550 1555 1558 1561 1565 1568 1571 1573 1576 1578 1580 1582 1584 1586 1587 1588 1589 1590 1591 1591 1590 1589 1588 1587 1586 1586 1584 1582 1579 1574 1568 1569 1567 1564 1562 1559 1557 1555 1554 1550 1546
1535 1539 1543 1547 1551 1554 1558 1563 1566 1568 1571 1572 1574 1576 1578 1580 1581 1583 1583 1584 1584 1584 1584 1584 1581 1581 1580 1581 1579 1575 1573 1570 1566 1563 1562 1556 1556 1553 1551 1549 1548 1545 1541
1527 1531 1535 1540 1544 1547 1552 1557 1561 1563 1565 1566 1568 1570 1572 1573 1576 1578 1578 1577 1577 1577 1578 1577 1575 1574 1574 1574 1572 1569 1567 1564 1561 1560 1558 1552 1551 1548 1547 1546 1543 1540 1537
1521 1524 1529 1533 1536 1540 1545 1550 1555 1557 1558 1560 1562 1564 1565 1567 1568 1571 1573 1572 1572 1572 1572 1571 1570 1568 1566 1566 1565 1563 1562 1560 1556 1555 1554 1550 1547 1543 1541 1539 1539 1535 1532
1512 1517 1521 1524 1528 1532 1537 1541 1546 1550 1550 1552 1554 1556 1558 1560 1562 1563 1563 1564 1563 1563 1565 1564 1563 1563 1562 1561 1561 1559 1557 1555 1553 1549 1548 1546 1543 1541 1537 1535 1534 1530 1527